{"data":{"norad_id":63699,"intl_designator":"2025-087C","name":"STARLINK-33919","alt_names":[],"object_type":"PAYLOAD","status":"ACTIVE","operator":null,"country":"US","launch_date":"2025-04-28","launch_site_code":"AFWTR","launch_vehicle":null,"mission":null,"orbit_class":"UNKNOWN","rcs_meters":null,"size_class":null,"mass_kg":null,"dimensions":null,"purposes":["comms"],"wikipedia_slug":null,"has_3d_model":false,"image_url":null,"decayed_at":null,"tle_current":{"epoch":"2026-05-24T15:28:44.264928Z","epoch_age_seconds":106028,"freshness":"FRESH","line1":"1 63699U 25087C   26144.64495677  .00016503  00000+0  56819-3 0  9996","line2":"2 63699  53.1580 227.1120 0000968  77.2234 282.8875 15.30193420 60824","mean_motion":15.3019342,"eccentricity":9.68e-5,"inclination_deg":53.158,"raan_deg":227.112,"arg_perigee_deg":77.2234,"mean_anomaly_deg":282.8875,"bstar":0.00056819,"rev_number":6082,"period_min":94.10575036978,"perigee_km":474.57130980155,"apogee_km":475.8981225658,"semimajor_km":6853.3717161837,"source":"CELESTRAK","updated_at":"2026-05-25T13:38:20.095983Z"}}}